Terminal Aerodrome Forecast
Issued by NWS Blacksburg, VA

Home | Current Version | Previous Version | Text Only | Print | Product List | Glossary On
Versions: 1 2 3 4 5 6 7 8 9 10 11 12 13 14 15 16 17
000
FTUS41 KRNK 230522
TAFLYH
TAF
KLYH 230522Z 2306/2406 00000KT P6SM SKC
     FM230700 VRB03KT P6SM -RA OVC030
     FM231100 04007KT 2SM RA BR OVC020
     FM231500 03008KT 5SM RA BR OVC009
     FM232100 04007KT 3SM -RA BR OVC005=

USA.gov is the U.S. government's official web portal to all federal, state and local government web resources and services.